{"data":{"norad_id":55933,"epoch":"2026-09-20T22:00:03.000096Z","epoch_age_seconds":70095,"freshness":"FRESH","line1":"1 55933U 23037V   26263.91670139  .00022759  00000+0  16018-2 0  9997","line2":"2 55933  70.0006 152.2317 0005198 271.9087  75.3848 15.05006262  5713","mean_motion":15.05006262,"eccentricity":0.0005198,"inclination_deg":70.0006,"raan_deg":152.2317,"arg_perigee_deg":271.9087,"mean_anomaly_deg":75.3848,"bstar":0.0016018,"rev_number":571,"period_min":95.680665015067,"perigee_km":547.88444205731,"apogee_km":555.08847860667,"semimajor_km":6929.623460332,"source":"CELESTRAK","updated_at":"2026-09-21T09:00:33.326052Z"}}